TimeMDT,TemperatureF,Dew PointF,Humidity,Sea Level PressureIn,VisibilityMPH,Wind Direction,Wind SpeedMPH,Gust SpeedMPH,PrecipitationIn,Events,Conditions,WindDirDegrees,DateUTC
12:05 AM,75.2,50.0,41,30.16,10.0,SE,15.0,27.6,N/A,,Clear,130,2013-07-15 06:05:00
12:53 AM,73.0,51.1,46,29.90,10.0,East,9.2,-,N/A,,Clear,100,2013-07-15 06:53:00
1:53 AM,70.0,53.1,55,29.89,10.0,ESE,4.6,-,N/A,,Clear,110,2013-07-15 07:53:00
2:53 AM,70.0,52.0,53,29.89,10.0,ESE,5.8,-,N/A,,Clear,110,2013-07-15 08:53:00
3:53 AM,69.1,52.0,54,29.89,10.0,East,6.9,-,N/A,,Clear,80,2013-07-15 09:53:00
4:53 AM,63.0,50.0,63,29.91,10.0,SE,9.2,-,N/A,,Clear,130,2013-07-15 10:53:00
5:53 AM,62.1,50.0,65,29.91,10.0,SE,5.8,-,N/A,,Clear,130,2013-07-15 11:53:00
6:53 AM,62.1,50.0,65,29.93,6.0,SE,4.6,-,N/A,,Haze,140,2013-07-15 12:53:00
7:53 AM,70.0,52.0,53,29.92,10.0,Variable,3.5,-,N/A,,Clear,0,2013-07-15 13:53:00
8:53 AM,73.9,51.1,45,29.91,10.0,SSE,3.5,-,N/A,,Clear,150,2013-07-15 14:53:00
9:53 AM,78.1,51.1,39,29.90,10.0,Calm,Calm,-,N/A,,Clear,0,2013-07-15 15:53:00
10:53 AM,82.0,50.0,33,29.88,10.0,Calm,Calm,-,N/A,,Clear,0,2013-07-15 16:53:00
11:53 AM,84.0,48.0,28,29.86,10.0,Variable,3.5,-,N/A,,Clear,0,2013-07-15 17:53:00
12:53 PM,87.1,48.0,26,29.82,10.0,NNE,4.6,-,N/A,,Clear,30,2013-07-15 18:53:00
1:53 PM,88.0,52.0,29,29.79,10.0,NW,9.2,-,N/A,,Clear,310,2013-07-15 19:53:00
2:53 PM,89.1,48.9,25,29.75,10.0,NW,8.1,-,N/A,,Clear,320,2013-07-15 20:53:00
3:53 PM,90.0,48.0,24,29.73,10.0,WNW,12.7,-,N/A,,Clear,290,2013-07-15 21:53:00
4:33 PM,89.6,48.2,24,30.02,10.0,WNW,11.5,-,N/A,Thunderstorm,Clear,300,2013-07-15 22:33:00
4:50 PM,89.6,48.2,24,30.01,10.0,West,6.9,-,N/A,,Partly Cloudy,270,2013-07-15 22:50:00
4:53 PM,89.1,48.0,24,29.74,10.0,West,6.9,-,N/A,,Partly Cloudy,270,2013-07-15 22:53:00
5:20 PM,82.4,53.6,37,30.02,10.0,ESE,15.0,32.2,N/A,Thunderstorm,Mostly Cloudy,110,2013-07-15 23:20:00
5:41 PM,78.8,57.2,47,30.04,10.0,ENE,24.2,33.4,0.00,Rain,Light Rain,60,2013-07-15 23:41:00
5:48 PM,78.8,53.6,42,30.03,7.0,ENE,17.3,36.8,0.00,Rain-Thunderstorm,Light Thunderstorms and Rain,70,2013-07-15 23:48:00
5:53 PM,79.0,52.0,39,29.80,8.0,East,18.4,36.8,0.00,Rain-Thunderstorm,Light Thunderstorms and Rain,90,2013-07-15 23:53:00
6:05 PM,75.2,55.4,50,30.04,10.0,ESE,17.3,-,0.00,Thunderstorm,Thunderstorm,110,2013-07-16 00:05:00
6:42 PM,75.2,55.4,50,30.09,10.0,East,11.5,-,0.00,,Partly Cloudy,90,2013-07-16 00:42:00
6:53 PM,75.0,55.0,50,29.87,10.0,ESE,12.7,-,0.00,,Mostly Cloudy,120,2013-07-16 00:53:00
7:53 PM,70.0,61.0,73,29.89,10.0,SE,15.0,-,0.01,Rain,Light Rain,140,2013-07-16 01:53:00
8:53 PM,70.0,57.9,65,29.88,10.0,South,12.7,-,0.00,Rain,Light Rain,170,2013-07-16 02:53:00
9:53 PM,69.1,55.9,63,29.88,10.0,ESE,19.6,-,0.00,,Clear,120,2013-07-16 03:53:00
10:53 PM,69.1,55.9,63,29.89,10.0,ESE,9.2,-,N/A,,Clear,120,2013-07-16 04:53:00
11:53 PM,68.0,55.9,65,29.91,10.0,West,5.8,-,N/A,,Clear,270,2013-07-16 05:53:00